Regional Weather Roundup
Issued by NWS

Home | Current Version | Previous Version | Text Only | Print | Product List | Glossary On
Versions: 1 2 3 4 5 6 7 8 9 10 11 12 13 14 15 16 17 18 19 20 21 22 23 24 25 26 27 28 29 30 31 32 33 34 35 36 37 38 39 40 41 42 43 44 45 46 47 48 49 50
000
ASUS43 KLOT 061612
RWRIL

ILLINOIS REGIONAL WEATHER ROUNDUP
NATIONAL WEATHER SERVICE CHICAGO/ROMEOVILLE IL
1000 AM CST TUE DEC 06 2016

NOTE: "FAIR" INDICATES FEW OR NO CLOUDS BELOW 12,000 FEET WITH NO
SIGNIFICANT WEATHER AND/OR OBSTRUCTIONS TO VISIBILITY.

* THESE STATIONS ARE NOT UNDER NWS QUALITY CONTROL. THEY ALSO MAY NOT
  REPORT WEATHER SUCH AS PRECIPITATION OR FOG.

ILZ001-002-007-009-015-016-024-061700-
NORTHWEST ILLINOIS

CITY           SKY/WX    TMP DP  RH WIND       PRES   REMARKS
MOLINE         FOG       35  33  92 W10       29.84R VSB 1   WCI  27
STERLING*      LGT RAIN  33  33 100 CALM      29.83R VSB 1/4
SAVANNA*       FOG       33  33  99 SW3       29.82R VSB 3/4
$$

ILZ003-004-008-010-011-017-018-061700-
NORTH CENTRAL ILLINOIS

CITY           SKY/WX    TMP DP  RH WIND       PRES   REMARKS
ROCKFORD       FOG       33  32  96 S3        29.81S VSB 1/2
FREEPORT*      FOG       32  32 100 CALM      29.81R VSB 1/2
ROCHELLE*      CLOUDY    32  32 100 CALM      29.80S FOG
DE KALB*       FOG       32  32 100 NW3       29.79S VSB 1
$$

ILZ005-006-012>014-019>023-061700-
NORTHEAST ILLINOIS

CITY           SKY/WX    TMP DP  RH WIND       PRES   REMARKS
CHICAGO-OHARE  CLOUDY    31  30  96 NW5       29.77S FOG     WCI  26
CHICAGO-MIDWAY CLOUDY    35  32  88 W5        29.78R FOG     WCI  31
AURORA         FOG       33  30  88 NW5       29.79F VSB<1/4 WCI  29
LANSING*       CLOUDY    34  32  93 CALM      29.78R FOG
JOLIET*        CLOUDY    32  32  99 CALM      29.79S FOG
WAUKEGAN       CLOUDY    38  34  85 CALM      29.76S FOG
DUPAGE AIRPORT FOG       34  34 100 N3        29.77F VSB 1/4
KANKAKEE*      CLOUDY    32  30  92 CALM      29.79S FOG
WHEELING       CLOUDY    36  34  92 NW3       29.78S FOG
MORRIS*        MOSUNNY   29  28  96 NW5       29.79R FOG     WCI  24
ROMEOVILLE*    SNOW      30  30 100 CALM      29.78S VSB<1/4
NORTHERLY ISL    N/A     39  32  76 E1          N/A
$$

LMZ740>746-061700-
SOUTHERN LAKE MICHIGAN

STATION/POSITION SKY/WX   TEMP    WIND        PRES    VSBY  WAVE
                          AIR SEA DIR/SP/G                  HT/PER
                          (F)     (DEG/KT/KT) (MB)    (MI)  (FT/S)
HARRISON CRIB              40     100/  3/  4   N/A
BURNHAM HARBOR             40      CALM  /  5   N/A
CALUMET HARBOR             38      90/  2/  3 1007.7R
BURNS HARBOR               36      70/  6/  8 1008.5F
$$

ILZ025>027-034>036-040-047-049-050-058-095>099-061700-
WEST-CENTRAL ILLINOIS

CITY           SKY/WX    TMP DP  RH WIND       PRES   REMARKS
QUINCY         CLOUDY    37  36  96 NW13      29.88R FOG     WCI  29
GALESBURG*     CLOUDY    34  34 100 W6        29.84R FOG     WCI  29
MACOMB*        CLOUDY    36  36  99 W7        29.88R FOG     WCI  31
JACKSONVILLE*  CLOUDY    36  34  94 NW9       29.87R FOG     WCI  29
PITTSFIELD*    CLOUDY    37  36  94 NW8       29.89R FOG     WCI  31
$$

ILZ028>032-037-038-041>044-048-051>054-059>061-061700-
CENTRAL ILLINOIS

CITY           SKY/WX    TMP DP  RH WIND       PRES   REMARKS
PONTIAC        FOG       32  32 100 NW6       29.81R VSB<1/4 WCI  27
BLOOMINGTON    CLOUDY    32  31  96 NW8       29.80S FOG     WCI  25
DECATUR        CLOUDY    36  33  89 NW13      29.81R FOG     WCI  27
PEORIA         CLOUDY    34  34 100 NW6       29.84R FOG     WCI  29
LACON*         CLOUDY    33  33 100 W3        29.82R FOG
LINCOLN*       CLOUDY    36  35  96 N7        29.82S FOG     WCI  30
SPRINGFIELD    CLOUDY    37  34  89 NW12      29.84R FOG     WCI  29
TAYLORVILLE    CLOUDY    35  33  91 NW17      29.83R WCI  25
$$

ILZ033-039-045-046-055>057-062-063-061700-
EAST-CENTRAL ILLINOIS

CITY           SKY/WX    TMP DP  RH WIND       PRES   REMARKS
CHAMPAIGN      CLOUDY    36  33  89 NW14      29.78R FOG     WCI  27
RANTOUL*       CLOUDY    35  34  96 NW8       29.78R FOG     WCI  29
MATTOON        CLOUDY    39  35  86 NW14      29.78R FOG     WCI  31
PARIS*         CLOUDY    38  36  94 NW7       29.77R FOG     WCI  32
$$

ILZ079-100>102-061700-
SOUTHWEST ILLINOIS

CITY           SKY/WX    TMP DP  RH WIND       PRES   REMARKS
ALTON          CLOUDY    37  34  87 NW14      29.86R WCI  29
BELLEVILLE     CLOUDY    39  38  96 NW10      29.84R WCI  32
CAHOKIA*       CLOUDY    40  34  79 NW13G23   29.88R
SPARTA*        CLOUDY    38  35  87 NW13G21   29.86R WCI  30
$$

ILZ064>066-069>071-074>076-080>082-084>086-088>090-092>094-061700-
SOUTH-CENTRAL ILLINOIS

CITY           SKY/WX    TMP DP  RH WIND       PRES   REMARKS
CARBONDALE     CLOUDY    41  38  89 NW13      29.84R
CAIRO*         CLOUDY    42  40  91 NW8       29.83R
EFFINGHAM*     CLOUDY    40  39  96 NW13      29.81R
MARION         CLOUDY    41  41 100 NW12      29.82R FOG
CENTRALIA*     CLOUDY    40  37  92 NW14G21   29.82R
SALEM*         CLOUDY    41  37  86 NW10      29.82R FOG
METROPOLIS*    CLOUDY    43  40  91 NW9G16    29.81R
$$

ILZ067-068-072-073-078-083-087-091-061700-
SOUTHEAST ILLINOIS

CITY           SKY/WX    TMP DP  RH WIND       PRES   REMARKS
LAWRENCEVILLE  LGT RAIN  41  40  96 NW10      29.78R
FLORA*         CLOUDY    42  39  89 NW13      29.81R
FAIRFIELD*     CLOUDY    40  40  97 NW3       29.80R
HARRISBURG*    CLOUDY    42  40  95 NW10      29.82R FOG
ROBINSON*      LGT RAIN  39  37  94 NW7       29.78R WCI  34
CARMI*         CLOUDY    41  40  98 NW12      29.80R FOG
$$

ABBREVIATIONS USED IN REMARKS
   TC - TEMPERATURE IN CELSIUS
  WCI - WIND CHILL INDEX
   HX - HEAT INDEX
  VSB - VISIBILITY
$$




USA.gov is the U.S. government's official web portal to all federal, state and local government web resources and services.